Tracking 31027 objects as of 19-Jul-2025
HD Live streaming from Space Station
objects crossing your sky now

FLOCK 4Y 24

Track FLOCK 4Y 24 now!
10-day predictions
FLOCK 4Y 24 is classified as:


NORAD ID: 55020
Int'l Code: 2023-001M
Perigee: 383.9 km
Apogee: 390.9 km
Inclination: 97.4 °
Period: 92.2 minutes
Semi major axis: 6758 km
RCS: Unknown
Launch date: January 3, 2023
Source: United States (US)
Launch site: AIR FORCE EASTERN TEST RANGE (AFETR)
Your satellite tracking list
MAROC TUBSAT
Track 1 satellite(s)




NASA's NSSDC Master Catalog

Two Line Element Set (TLE):
1 55020U 23001M   25199.17331142  .00100796  00000-0  11194-2 0  9997
2 55020  97.3686 273.4521 0005192 181.6472 178.4770 15.62572262141865
Source of the keplerian elements: AFSPC